Location: Baumgarten
(49.0970°N, 12.7493°E)
Time: 17:16:22
(UTC+00:00)

Terra - Pass Details

Date: 05 July 2020
Orbit: 701 x 703 km, 98.2° (Epoch: 12 August)

Event Time Altitude Azimuth Distance (km) Brightness Sun altitude
Exits shadow 20:31:39 13° 145° (SE) 1,991 3.5 -9.7°
Maximum altitude 20:35:49 54° 70° (ENE) 855 2.2 -10.1°
Drops below altitude 10° 20:40:29 10° 354° (N) 2,183 5.4 -10.5°
Sets 20:42:47 0° 350° (N) 3,106 6.5 -10.7°
